Weather History for KTHV - February, 2013

Change the Weather History Date:

Monday, February 11, 2013

  Actual Average Record
Temperature  
Mean Temperature 40 °F -  
Max Temperature 48 °F 0 °F 64 °F (2009)
Min Temperature 33 °F - 1 °F (2007)
Degree Days  
Heating Degree Days 24    
Moisture  
Dew Point 36 °F    
Average Humidity 89    
Maximum Humidity 100    
Minimum Humidity 52    
Precipitation  
Precipitation 0.22 in - - ()
Sea Level Pressure  
Sea Level Pressure 29.90 in    
Wind  
Wind Speed 3 mph (South)    
Max Wind Speed 8 mph    
Max Gust Speed -    
Visibility 6 miles    
Events Fog , Rain    
Averages and records for this station are not official NWS values.
T = Trace of Precipitation, MM = Missing Value Source: NWS Daily Summary

Daily Weather History Graph

Daily Weather History Graph

Search for Another Location

Airport or City:

Trip Planner

Search our weather history database for the weather conditions in past years. The results will help you decide how hot, cold, wet, or windy it might be!

Date:

Astronomy

Feb. 11, 2013 Rise Set
Actual Time 7:04 AM EST 5:39 PM EST
Civil Twilight 6:36 AM EST 6:07 PM EST
Nautical Twilight 6:05 AM EST 6:38 PM EST
Astronomical Twilight 5:33 AM EST 7:10 PM EST
Moon 7:28 AM EST (2/11) 7:33 PM EST (2/11)
Length of Visible Light 11h 30m
Length of Day
10h 34m
Waxing Crescent, 3% of the Moon is Illuminated
Feb 11
Waxing Crescent
Feb 17
First Quarter
Feb 25
Full
Mar 4
Last Quarter
Mar 11
New

Hourly Weather History & Observations

Time (EST) Temp. Windchill Dew Point Humidity Pressure Visibility Wind Dir Wind Speed Gust Speed Precip Events Conditions
12:53 AM 36.0 °F 29.6 °F 19.9 °F 52% 30.22 in 10.0 mi SSE 8.1 mph - N/A   Scattered Clouds
1:53 AM 36.0 °F 29.6 °F 26.1 °F 67% 30.19 in 10.0 mi SSE 8.1 mph - 0.00 in   Overcast
2:53 AM 35.1 °F - 30.0 °F 82% 30.17 in 3.0 mi Calm Calm - 0.02 in Rain Light Rain
3:01 AM 33.8 °F - 30.2 °F 87% 30.14 in 4.0 mi Calm Calm - 0.01 in Rain Light Rain
3:17 AM 33.8 °F - 30.2 °F 87% 30.13 in 3.0 mi Calm Calm - 0.03 in Rain Light Rain
3:44 AM 33.8 °F 30.8 °F 32.0 °F 93% 30.10 in 3.0 mi ESE 3.5 mph - 0.06 in Rain Rain
3:53 AM 34.0 °F 31.0 °F 32.0 °F 92% 30.12 in 4.0 mi SE 3.5 mph - 0.07 in Rain Light Rain
4:29 AM 33.8 °F 30.8 °F 32.0 °F 93% 30.08 in 2.5 mi East 3.5 mph - 0.05 in Rain Light Rain
4:39 AM 33.8 °F - 32.0 °F 93% 30.08 in 3.0 mi Calm Calm - 0.05 in Rain Light Rain
4:53 AM 34.0 °F 29.8 °F 32.0 °F 92% 30.09 in 3.0 mi East 4.6 mph - 0.06 in Rain Light Rain
5:53 AM 35.1 °F 32.2 °F 33.1 °F 92% 30.06 in 3.0 mi ESE 3.5 mph - 0.07 in Rain Light Rain
6:20 AM 35.6 °F 32.8 °F 33.8 °F 93% 30.02 in 4.0 mi SE 3.5 mph - 0.00 in Rain Light Rain
6:36 AM 35.6 °F - 33.8 °F 93% 30.02 in 9.0 mi Calm Calm - 0.00 in   Overcast
6:53 AM 36.0 °F 33.3 °F 34.0 °F 93% 30.03 in 7.0 mi Variable 3.5 mph - 0.00 in   Overcast
7:24 AM 35.6 °F - 33.8 °F 93% 30.00 in 10.0 mi Calm Calm - N/A   Overcast
7:53 AM 37.0 °F - 35.1 °F 93% 30.01 in 10.0 mi Calm Calm - N/A   Overcast
8:04 AM 37.4 °F - 35.6 °F 93% 29.98 in 10.0 mi Calm Calm - N/A   Overcast
8:53 AM 37.9 °F - 36.0 °F 93% 29.98 in 10.0 mi Calm Calm - N/A   Overcast
9:53 AM 39.0 °F - 37.0 °F 93% 29.97 in 9.0 mi Calm Calm - N/A   Overcast
10:27 AM 39.2 °F 35.0 °F 37.4 °F 93% 29.92 in 7.0 mi SW 5.8 mph - N/A   Overcast
10:53 AM 41.0 °F 37.1 °F 39.0 °F 93% 29.93 in 7.0 mi SW 5.8 mph - N/A   Overcast
11:53 AM 43.0 °F 38.8 °F 39.9 °F 89% 29.88 in 10.0 mi SSW 6.9 mph - N/A   Overcast
12:53 PM 45.0 °F 43.5 °F 42.1 °F 90% 29.82 in 9.0 mi SSW 3.5 mph - N/A   Overcast
1:04 PM 46.4 °F 43.5 °F 42.8 °F 87% 29.80 in 9.0 mi SSW 5.8 mph - N/A   Overcast
1:53 PM 46.0 °F 42.5 °F 43.0 °F 89% 29.79 in 10.0 mi SSW 6.9 mph - N/A   Overcast
2:53 PM 46.9 °F - 43.0 °F 86% 29.76 in 10.0 mi SW 4.6 mph - N/A   Overcast
3:53 PM 48.9 °F - 44.1 °F 83% 29.73 in 10.0 mi Variable 4.6 mph - N/A   Overcast
4:08 PM 48.2 °F - 44.6 °F 87% 29.71 in 10.0 mi Calm Calm - N/A   Overcast
4:53 PM 48.9 °F - 45.0 °F 86% 29.71 in 10.0 mi Calm Calm - N/A   Overcast
5:53 PM 48.0 °F - 44.1 °F 86% 29.69 in 10.0 mi Calm Calm - N/A   Overcast
6:21 PM 42.8 °F - 41.0 °F 93% 29.67 in 7.0 mi Calm Calm - N/A   Partly Cloudy
6:32 PM 39.2 °F - 39.2 °F 100% 29.67 in 1.5 mi Calm Calm - N/A   Clear
6:42 PM 39.2 °F - 37.4 °F 93% 29.67 in 1.0 mi Calm Calm - N/A   Clear
6:49 PM 37.4 °F - 37.4 °F 100% 29.67 in 0.2 mi Calm Calm - N/A Fog Fog
6:53 PM 37.0 °F - 36.0 °F 96% 29.69 in 0.2 mi Calm Calm - N/A Fog Fog
7:53 PM 35.1 °F - 34.0 °F 96% 29.70 in 0.2 mi Calm Calm - N/A Fog Fog
8:53 PM 39.0 °F 35.7 °F 37.9 °F 96% 29.73 in 0.2 mi WNW 4.6 mph - N/A Fog Fog
9:26 PM 39.2 °F 35.0 °F 37.4 °F 93% 29.75 in 1.2 mi NNW 5.8 mph - N/A   Mostly Cloudy
9:29 PM 39.2 °F - 37.4 °F 93% 29.75 in 4.0 mi Calm Calm - N/A   Scattered Clouds
9:53 PM 37.9 °F - 35.1 °F 89% 29.78 in 10.0 mi Calm Calm - N/A   Clear
10:53 PM 34.0 °F 29.8 °F 32.0 °F 92% 29.81 in 7.0 mi NNW 4.6 mph - N/A   Clear
11:53 PM 37.9 °F 35.5 °F 30.0 °F 73% 29.83 in 10.0 mi West 3.5 mph - N/A   Clear